Regional Weather Roundup
Issued by NWS Raleigh/Durham, NC

Home | Current Version | Previous Version | Text Only | Print | Product List | Glossary On
Versions: 1 2 3 4 5 6 7 8 9 10 11 12 13 14 15 16 17 18 19 20 21 22 23 24 25 26 27 28 29 30 31 32 33 34 35 36 37 38 39 40 41 42 43 44 45 46 47 48 49 50
000
ASUS42 KRAH 140610
RWRRAH
NORTH CAROLINA WEATHER ROUNDUP
NATIONAL WEATHER SERVICE RALEIGH NC
100 AM EST SUN FEB 14 2016

NOTE: "FAIR" INDICATES FEW OR NO CLOUDS BELOW 12,000 FEET WITH NO
SIGNIFICANT WEATHER AND/OR OBSTRUCTIONS TO VISIBILITY.

NCZ001-053-055-056-065-067-140700-
WESTERN NORTH CAROLINA

CITY           SKY/WX    TMP DP  RH WIND       PRES   REMARKS
ASHEVILLE      CLOUDY    18   3  52 N7        30.29F WCI   9
JEFFERSON      CLOUDY    10  -4  53 W13       30.21S WCI  -5
MORGANTON      CLEAR     21   2  43 N6        30.39F WCI  14
HICKORY        CLEAR     20   5  52 CALM      30.34F
RUTHERFORDTON  CLOUDY    23   3  42 NE6       30.35F WCI  16
MOUNT AIRY     CLEAR     17   2  51 CALM      30.40F
BOONE          CLOUDY    10  -1  59 NW8       30.21F WCI  -2
$$

NCZ021-022-025-041-071-084-088-140700-
CENTRAL NORTH CAROLINA

CITY           SKY/WX    TMP DP  RH WIND       PRES   REMARKS
CHARLOTTE      CLEAR     23   0  36 NE10      30.39F WCI  12
GREENSBORO     CLEAR     17  -1  45 NE3       30.39F
WINSTON-SALEM  CLEAR     16  -1  47 N6        30.41F WCI   7
RALEIGH-DURHAM CLEAR     20  -1  40 VRB3      30.44R
FORT BRAGG     CLEAR     23   1  37 N7        30.41S WCI  15
FAYETTEVILLE   CLEAR     24   2  38 N10       30.42R WCI  14
BURLINGTON     CLEAR     19  -1  41 N6        30.42F WCI  11
LAURINBURG     CLEAR     25   1  35 N12G18    30.44R WCI  14
$$

NCZ011-015-027-028-043-044-047-080-103-140700-
NORTHEASTERN NORTH CAROLINA

CITY           SKY/WX    TMP DP  RH WIND       PRES   REMARKS
ROCKY MT-WILSO CLEAR     22  -2  35 N10       30.45R WCI  11
GREENVILLE     CLEAR     23   1  39 N5        30.44S WCI  17
WASHINGTON     CLEAR     22   3  43 NW5       30.44R WCI  16
ELIZABETH CITY CLEAR     20   3  48 N15G41    30.45R WCI   6
MANTEO         CLEAR     23   6  48 N13G22    30.43R WCI  11
CAPE HATTERAS  CLEAR     28   9  44 N6        30.39S WCI  22
$$

NCZ078-087-090-091-093-098-101-140700-
SOUTHEASTERN NORTH CAROLINA

CITY           SKY/WX    TMP DP  RH WIND       PRES   REMARKS
LUMBERTON      PTCLDY    26   6  42 N6        30.43R WCI  19
GOLDSBORO      CLEAR     23  -2  33 N7        30.43R WCI  15
KINSTON        CLEAR     24   0  34 N9        30.45R WCI  15
KENANSVILLE    CLEAR     24   3  40 N7        30.44R WCI  16
NEW BERN       CLEAR     25   2  37 N12       30.44R WCI  14
CHERRY POINT   CLEAR     26   3  37 N14       30.42S WCI  14
BEAUFORT       CLEAR     25   4  40 N13       30.41F WCI  14
JACKSONVILLE   CLEAR     25   4  40 N13       30.42R WCI  14
WILMINGTON     CLEAR     27   5  39 NE6       30.42R WCI  20
$$




USA.gov is the U.S. government's official web portal to all federal, state and local government web resources and services.